[ hide orbit diagram ]
For accurate long-term ephemerides, please instead use our Horizons system.This orbit viewer was implemented using two-body methods, and hence should not be used for determining accurate long-term trajectories (over several years or decades) or planetary encounter circumstances.
Orbital Elements at Epoch 2459000.5 (2020-May-31.0) TDB
Reference: JPL 19 (heliocentric ecliptic J2000)
Element | Value | Uncertainty (1-sigma) | Units |
e | .1309715893888818 | 5.5233e-08 | |
a | 2.63406911439788 | 3.4359e-08 | au |
q | 2.289080895925026 | 1.5316e-07 | au |
i | 13.61247638372075 | 5.8815e-06 | deg |
node | 145.6029574887667 | 2.3319e-05 | deg |
peri | 348.3226542867375 | 3.2148e-05 | deg |
M | 166.7236609736279 | 2.6198e-05 | deg |
tp | 2458277.340803880628 (2018-Jun-07.84080388) | 0.00010489 | TDB |
period | 1561.489887414083 4.28 | 3.0552e-05 8.365e-08 | d yr |
n | .2305490435139357 | 4.5109e-09 | deg/d |
Q | 2.979057332870735 | 3.8859e-08 | au |
|
| | Orbit Determination Parameters
Additional Information
|
[ show covariance matrix ]
Physical Parameter Table
Parameter |
Symbol |
Value |
Units |
Sigma |
Reference |
Notes |
absolute magnitude |
H |
16.7 |
|
n/a |
MPO434611 |
|
|
437577 (2014 AX31) Discovered 2010-Feb-09 by Spacewatch at Kitt Peak |
Reference: | Last Updated: 2015-06-04 |
|
|